DLH410 EDDM-KJFK

Flight info

Callsign DLH410
Flight time N/A
Altitude 38000
Route EDDM/26L GIVMI Y101 INBED DCT REKDI DCT LOHRE DCT ADKUV DCT LENDO DCT DENUT L610 KOPUL Q60 OKSAW DCT FELCA DCT FADZU DCT BANBA DCT XETBO DCT LIMRI/M084F390 DCT 53N020W 53N030W 53N040W 52N050W DCT TUDEP/N0494F400 N526A TOPPS DCT ENE PARCH4
Aircraft A359/H-SDE2E3GHIJ3J4J5LM1ORWXY/LB1D1

Departure

Time N/A
Airport Munich Airport (EDDM)

Arrival

Time 2026-05-04 14:53
Airport John F. Kennedy International Airport (KJFK)
Time Latitude Longitude Altitude Speed Heading
2026-05-04 07:17 49.51140 10.70797 30836 ft 454 kts 305°
2026-05-04 07:18 49.53107 10.67002 31137 ft 455 kts 305°
2026-05-04 07:18 49.55091 10.63191 31434 ft 457 kts 305°
2026-05-04 07:18 49.57087 10.59367 31730 ft 459 kts 305°
2026-05-04 07:18 49.59096 10.55522 32008 ft 461 kts 305°
2026-05-04 07:19 49.61109 10.51668 32285 ft 463 kts 305°
2026-05-04 07:19 49.63130 10.47794 32539 ft 464 kts 305°
2026-05-04 07:19 49.65155 10.43907 32803 ft 466 kts 305°
2026-05-04 07:19 49.67157 10.39964 33058 ft 467 kts 302°
2026-05-04 07:20 49.69028 10.35870 33281 ft 467 kts 300°
2026-05-04 07:20 49.70824 10.31693 33633 ft 466 kts 299°
2026-05-04 07:20 49.72593 10.27510 33983 ft 464 kts 299°
2026-05-04 07:20 49.74364 10.23338 34295 ft 464 kts 300°
2026-05-04 07:22 49.86965 9.94384 35931 ft 463 kts 300°
2026-05-04 07:22 49.88768 9.90242 36147 ft 463 kts 300°
2026-05-04 07:23 49.90567 9.86100 36332 ft 463 kts 300°
2026-05-04 07:23 49.92361 9.81963 36535 ft 463 kts 300°
2026-05-04 07:23 49.94158 9.77812 36724 ft 463 kts 300°
2026-05-04 07:23 49.95950 9.73667 36902 ft 463 kts 300°
2026-05-04 07:24 49.97744 9.69511 37078 ft 463 kts 300°
2026-05-04 07:24 49.99532 9.65359 37271 ft 462 kts 299°
2026-05-04 07:24 50.01294 9.61263 37440 ft 462 kts 299°
2026-05-04 07:24 50.03079 9.57108 37687 ft 461 kts 299°
2026-05-04 07:25 50.04840 9.52953 37885 ft 459 kts 297°
2026-05-04 07:26 50.11724 9.20320 38018 ft 454 kts 281°
2026-05-04 07:27 50.13364 9.10816 38016 ft 454 kts 281°
2026-05-04 07:27 50.15009 9.01321 38015 ft 454 kts 281°
2026-05-04 07:28 50.16655 8.91803 38018 ft 454 kts 281°
2026-05-04 07:28 50.18289 8.82296 38019 ft 454 kts 281°
2026-05-04 07:29 50.19915 8.72784 38020 ft 454 kts 281°
2026-05-04 07:29 50.21534 8.63260 38018 ft 454 kts 281°
2026-05-04 07:30 50.23145 8.53729 38019 ft 454 kts 281°
2026-05-04 07:30 50.24747 8.44201 38019 ft 454 kts 280°
2026-05-04 07:31 50.26343 8.34654 38022 ft 454 kts 280°
2026-05-04 07:33 50.32662 7.96323 38013 ft 455 kts 280°
2026-05-04 07:33 50.34224 7.86713 38010 ft 455 kts 280°
2026-05-04 07:34 50.35781 7.77078 38011 ft 458 kts 280°
2026-05-04 07:34 50.37336 7.67388 38005 ft 459 kts 280°
2026-05-04 07:35 50.38886 7.57688 38004 ft 459 kts 279°
2026-05-04 07:35 50.40427 7.47987 38004 ft 459 kts 279°
2026-05-04 07:36 50.41962 7.38273 38002 ft 458 kts 279°
2026-05-04 07:38 50.47774 7.00911 37992 ft 460 kts 279°
2026-05-04 07:38 50.49274 6.91134 37994 ft 461 kts 278°
2026-05-04 07:39 50.50866 6.81327 37990 ft 467 kts 283°
2026-05-04 07:39 50.52928 6.71629 37992 ft 468 kts 284°
2026-05-04 07:40 50.55067 6.61956 37977 ft 468 kts 284°
2026-05-04 07:40 50.57207 6.52284 37981 ft 468 kts 284°
2026-05-04 07:41 50.59334 6.42596 37973 ft 469 kts 284°
2026-05-04 07:41 50.61448 6.32890 37971 ft 469 kts 284°
2026-05-04 07:42 50.63589 6.23194 37973 ft 470 kts 285°
2026-05-04 07:42 50.65948 6.13654 37977 ft 470 kts 287°
2026-05-04 07:43 50.68365 6.04071 37980 ft 470 kts 287°
2026-05-04 07:43 50.70741 5.94466 37981 ft 470 kts 286°
2026-05-04 07:44 50.73084 5.84844 37993 ft 470 kts 286°
2026-05-04 07:44 50.75413 5.75213 37988 ft 470 kts 286°
2026-05-04 07:45 50.77734 5.65581 37989 ft 469 kts 286°
2026-05-04 07:45 50.80052 5.55918 37995 ft 471 kts 286°
2026-05-04 07:46 50.82372 5.46201 37995 ft 473 kts 286°
2026-05-04 07:46 50.84692 5.36452 37989 ft 473 kts 285°
2026-05-04 07:47 50.87001 5.26704 37990 ft 473 kts 285°
2026-05-04 07:49 50.96171 4.87535 37998 ft 474 kts 285°
2026-05-04 07:49 50.98445 4.77711 37978 ft 474 kts 285°
2026-05-04 07:50 51.00711 4.67877 37992 ft 475 kts 286°
2026-05-04 07:50 51.02976 4.57992 37997 ft 477 kts 286°
2026-05-04 07:51 51.05217 4.48179 37997 ft 478 kts 285°
2026-05-04 07:51 51.07486 4.38198 37991 ft 478 kts 285°
2026-05-04 07:52 51.09734 4.28258 37992 ft 478 kts 285°
2026-05-04 07:52 51.11975 4.18299 37998 ft 478 kts 285°
2026-05-04 07:54 51.20848 3.78399 37985 ft 478 kts 285°
2026-05-04 07:55 51.23038 3.68390 37982 ft 478 kts 284°
2026-05-04 07:55 51.24645 3.58144 37985 ft 475 kts 279°
2026-05-04 07:56 51.26036 3.47840 37981 ft 475 kts 278°
2026-05-04 07:56 51.27380 3.37514 37987 ft 475 kts 278°
2026-05-04 07:57 51.28701 3.27180 37989 ft 475 kts 278°
2026-05-04 07:57 51.30015 3.16845 37985 ft 475 kts 278°
2026-05-04 07:58 51.31326 3.06510 37990 ft 474 kts 278°
2026-05-04 07:58 51.32628 2.96170 37991 ft 474 kts 278°
2026-05-04 07:59 51.33911 2.85906 37991 ft 474 kts 278°
2026-05-04 07:59 51.35195 2.75555 37979 ft 475 kts 278°
2026-05-04 08:00 51.36476 2.65181 37985 ft 475 kts 278°
2026-05-04 08:02 51.41525 2.23582 37987 ft 478 kts 278°
2026-05-04 08:02 51.42802 2.13112 37992 ft 479 kts 278°
2026-05-04 08:03 51.44076 2.02648 37990 ft 479 kts 278°
2026-05-04 08:03 51.45341 1.92170 37998 ft 479 kts 278°
2026-05-04 08:04 51.46568 1.81685 37998 ft 478 kts 278°
2026-05-04 08:04 51.47771 1.71197 38005 ft 478 kts 278°
2026-05-04 08:05 51.48965 1.60706 38005 ft 478 kts 278°
2026-05-04 08:05 51.50160 1.50210 38004 ft 478 kts 278°
2026-05-04 08:06 51.51341 1.39713 38008 ft 478 kts 278°
2026-05-04 08:06 51.52512 1.29213 38005 ft 478 kts 278°
2026-05-04 08:08 51.55974 0.87051 37993 ft 479 kts 273°
2026-05-04 08:11 51.58846 0.38931 38000 ft 483 kts 274°
2026-05-04 08:11 51.59781 0.22780 38018 ft 484 kts 274°
2026-05-04 08:12 51.60392 0.12006 38019 ft 484 kts 274°
2026-05-04 08:12 51.60993 0.01232 38021 ft 484 kts 274°
2026-05-04 08:13 51.61584 -0.09554 38041 ft 485 kts 274°
2026-05-04 08:13 51.62201 -0.20360 38047 ft 485 kts 274°
2026-05-04 08:14 51.62879 -0.31177 38048 ft 485 kts 275°
2026-05-04 08:16 51.65449 -0.74439 38018 ft 485 kts 274°
2026-05-04 08:16 51.66061 -0.85269 38016 ft 485 kts 274°
2026-05-04 08:17 51.66663 -0.96094 38021 ft 485 kts 274°
2026-05-04 08:17 51.67255 -1.06935 38019 ft 486 kts 274°
2026-05-04 08:19 51.69528 -1.50334 38024 ft 486 kts 274°
2026-05-04 08:20 51.70071 -1.61201 38025 ft 486 kts 273°
2026-05-04 08:20 51.70619 -1.72066 38011 ft 486 kts 274°
2026-05-04 08:21 51.71384 -1.82902 38018 ft 487 kts 276°
2026-05-04 08:21 51.72215 -1.93658 38024 ft 487 kts 276°
2026-05-04 08:22 51.73017 -2.04570 38014 ft 487 kts 276°
2026-05-04 08:24 51.75985 -2.48011 38017 ft 488 kts 275°
2026-05-04 08:24 51.76705 -2.58933 38021 ft 490 kts 275°
2026-05-04 08:25 51.77297 -2.68025 38019 ft 490 kts 275°
2026-05-04 08:25 51.77999 -2.78964 38023 ft 490 kts 275°
2026-05-04 08:27 51.80711 -3.22795 38037 ft 491 kts 275°
2026-05-04 08:28 51.81364 -3.33780 38029 ft 491 kts 275°
2026-05-04 08:28 51.82007 -3.44776 38022 ft 492 kts 275°
2026-05-04 08:29 51.82838 -3.55766 38015 ft 493 kts 281°
2026-05-04 08:31 51.88203 -3.99342 38014 ft 495 kts 275°
2026-05-04 08:33 51.90010 -4.43845 38007 ft 496 kts 274°
2026-05-04 08:35 51.91576 -4.88461 38017 ft 497 kts 274°
2026-05-04 08:35 51.91942 -4.99653 38012 ft 497 kts 274°
2026-05-04 08:37 51.93138 -5.38850 38020 ft 500 kts 273°
2026-05-04 08:38 51.93458 -5.50106 38014 ft 499 kts 274°
2026-05-04 08:38 51.93767 -5.61361 38020 ft 501 kts 273°
2026-05-04 08:40 51.94897 -6.06484 38036 ft 504 kts 273°
2026-05-04 08:41 51.95155 -6.17804 38033 ft 502 kts 273°
2026-05-04 08:41 51.95426 -6.29119 38038 ft 503 kts 274°
2026-05-04 08:42 51.95859 -6.40416 38034 ft 501 kts 275°
2026-05-04 08:42 51.96322 -6.51733 38044 ft 505 kts 275°
2026-05-04 08:43 51.96753 -6.63080 38041 ft 503 kts 275°
2026-05-04 08:43 51.97155 -6.74423 38044 ft 505 kts 274°
2026-05-04 08:44 51.97542 -6.85777 38041 ft 504 kts 275°
2026-05-04 08:46 51.98980 -7.31030 38051 ft 503 kts 274°
2026-05-04 08:46 51.99313 -7.42361 38059 ft 502 kts 274°
2026-05-04 08:47 51.99634 -7.53672 38048 ft 502 kts 274°
2026-05-04 08:47 51.99945 -7.64986 38054 ft 502 kts 274°
2026-05-04 08:48 52.00246 -7.76311 38059 ft 502 kts 274°
2026-05-04 08:48 52.00535 -7.87636 38054 ft 502 kts 274°
2026-05-04 08:49 52.00814 -7.98964 38061 ft 503 kts 274°
2026-05-04 08:50 52.01706 -8.38713 38060 ft 504 kts 274°
2026-05-04 08:51 52.01936 -8.50096 38055 ft 504 kts 274°
2026-05-04 08:51 52.02156 -8.61469 38057 ft 505 kts 274°
2026-05-04 08:52 52.02365 -8.72862 38063 ft 505 kts 274°
2026-05-04 08:52 52.02563 -8.84251 38070 ft 505 kts 273°
2026-05-04 08:54 52.03243 -9.29807 38096 ft 505 kts 273°
2026-05-04 08:55 52.03386 -9.41202 38094 ft 505 kts 273°
2026-05-04 08:55 52.03518 -9.52513 38097 ft 504 kts 273°
2026-05-04 09:01 52.04240 -10.72345 38110 ft 505 kts 273°
2026-05-04 09:01 52.04245 -10.83746 38104 ft 505 kts 272°
2026-05-04 09:02 52.04239 -10.95141 38116 ft 504 kts 273°
2026-05-04 09:02 52.04223 -11.06516 38123 ft 503 kts 273°
2026-05-04 09:03 52.04196 -11.17884 38130 ft 503 kts 273°
2026-05-04 09:03 52.04158 -11.29257 38133 ft 504 kts 272°
2026-05-04 09:04 52.04108 -11.40632 38136 ft 503 kts 273°
2026-05-04 09:04 52.04048 -11.51976 38143 ft 502 kts 273°
2026-05-04 09:05 52.03977 -11.63322 38138 ft 502 kts 272°
2026-05-04 09:05 52.03895 -11.74670 38144 ft 502 kts 272°
2026-05-04 09:06 52.03802 -11.86017 38144 ft 502 kts 272°
2026-05-04 09:08 52.03323 -12.31282 38168 ft 501 kts 272°
2026-05-04 09:08 52.03176 -12.42595 38166 ft 501 kts 272°
2026-05-04 09:09 52.03020 -12.53823 38171 ft 501 kts 272°
2026-05-04 09:09 52.02852 -12.65128 38177 ft 501 kts 272°
2026-05-04 09:10 52.02672 -12.76433 38182 ft 501 kts 272°
2026-05-04 09:10 52.02482 -12.87735 38185 ft 501 kts 272°
2026-05-04 09:11 52.02315 -12.97200 38181 ft 500 kts 271°
2026-05-04 09:11 52.02070 -13.10318 38186 ft 500 kts 271°
2026-05-04 09:12 52.01885 -13.19774 38183 ft 500 kts 271°
2026-05-04 09:14 52.00900 -13.64725 38200 ft 498 kts 271°
2026-05-04 09:14 52.00627 -13.75960 38200 ft 498 kts 271°
2026-05-04 09:15 52.00344 -13.87190 38199 ft 498 kts 270°
2026-05-04 09:15 52.00050 -13.98410 38205 ft 498 kts 270°
2026-05-04 09:17 52.00119 -14.48767 38216 ft 495 kts 273°
2026-05-04 09:18 52.00112 -14.59934 38219 ft 495 kts 272°
2026-05-04 09:18 52.00095 -14.71100 38219 ft 495 kts 272°
2026-05-04 09:19 52.00069 -14.82264 38219 ft 495 kts 272°
2026-05-04 09:19 52.00045 -14.93428 38218 ft 494 kts 274°
2026-05-04 09:20 52.00334 -14.98959 38343 ft 491 kts 282°
2026-05-04 09:20 52.01085 -15.04250 38565 ft 485 kts 290°
2026-05-04 09:20 52.02116 -15.09457 38790 ft 483 kts 292°
2026-05-04 09:20 52.03224 -15.14600 38942 ft 482 kts 292°
2026-05-04 09:21 52.04372 -15.19713 39122 ft 481 kts 292°
2026-05-04 09:21 52.05547 -15.24873 39207 ft 482 kts 293°
2026-05-04 09:21 52.07854 -15.35048 39225 ft 483 kts 292°
2026-05-04 09:22 52.10147 -15.45324 39223 ft 483 kts 292°
2026-05-04 09:22 52.12414 -15.55591 39226 ft 483 kts 292°
2026-05-04 09:23 52.14674 -15.65895 39225 ft 483 kts 292°
2026-05-04 09:23 52.16927 -15.76211 39238 ft 483 kts 292°
2026-05-04 09:25 52.25835 -16.17508 39242 ft 482 kts 291°
2026-05-04 09:26 52.28038 -16.27847 39234 ft 482 kts 291°
2026-05-04 09:26 52.30232 -16.38202 39246 ft 482 kts 291°
2026-05-04 09:27 52.32417 -16.48565 39231 ft 482 kts 291°
2026-05-04 09:27 52.34593 -16.58941 39244 ft 482 kts 290°
2026-05-04 09:28 52.36764 -16.69340 39232 ft 483 kts 290°
2026-05-04 09:28 52.38926 -16.79756 39244 ft 483 kts 290°
2026-05-04 09:29 52.41079 -16.90183 39245 ft 483 kts 290°
2026-05-04 09:29 52.43222 -17.00614 39247 ft 483 kts 290°
2026-05-04 09:30 52.45356 -17.11060 39250 ft 483 kts 290°
2026-05-04 09:30 52.47482 -17.21516 39249 ft 484 kts 290°
2026-05-04 09:31 52.49598 -17.31986 39251 ft 483 kts 290°
2026-05-04 09:31 52.51699 -17.42437 39251 ft 482 kts 290°
2026-05-04 09:32 52.53792 -17.52893 39255 ft 482 kts 290°
2026-05-04 09:34 52.62061 -17.94794 39261 ft 480 kts 289°
2026-05-04 09:34 52.64081 -18.05160 39261 ft 477 kts 289°
2026-05-04 09:35 52.66097 -18.15567 39267 ft 478 kts 288°
2026-05-04 09:35 52.68101 -18.25983 39266 ft 476 kts 288°
2026-05-04 09:37 52.75987 -18.67490 39279 ft 474 kts 288°
2026-05-04 09:38 52.77928 -18.77852 39276 ft 472 kts 288°
2026-05-04 09:38 52.79850 -18.88170 39279 ft 469 kts 288°
2026-05-04 09:39 52.81765 -18.98496 39275 ft 471 kts 288°
2026-05-04 09:39 52.83676 -19.08863 39282 ft 473 kts 288°
2026-05-04 09:40 52.85582 -19.19265 39283 ft 471 kts 288°
2026-05-04 09:40 52.87474 -19.29653 39288 ft 471 kts 288°
2026-05-04 09:42 52.94930 -19.71164 39293 ft 470 kts 287°
2026-05-04 09:43 52.96767 -19.81534 39294 ft 468 kts 287°
2026-05-04 09:43 52.98598 -19.91929 39292 ft 470 kts 287°
2026-05-04 09:44 53.00019 -20.02512 39301 ft 472 kts 277°
2026-05-04 09:46 53.01849 -20.45914 39304 ft 470 kts 274°
2026-05-04 09:46 53.02257 -20.56770 39310 ft 471 kts 274°
2026-05-04 09:47 53.02656 -20.67609 39310 ft 470 kts 274°
2026-05-04 09:49 53.04156 -21.11048 39320 ft 470 kts 274°
2026-05-04 09:51 53.05335 -21.49003 39326 ft 471 kts 274°
2026-05-04 09:51 53.05650 -21.59862 39322 ft 469 kts 273°
2026-05-04 09:52 53.05954 -21.70690 39328 ft 470 kts 274°
2026-05-04 09:52 53.06249 -21.81551 39334 ft 470 kts 273°
2026-05-04 09:53 53.06534 -21.92394 39333 ft 470 kts 273°
2026-05-04 09:53 53.06810 -22.03265 39334 ft 470 kts 273°
2026-05-04 09:54 53.07075 -22.14110 39341 ft 470 kts 273°
2026-05-04 09:54 53.07331 -22.24975 39341 ft 470 kts 273°
2026-05-04 09:55 53.07576 -22.35827 39347 ft 469 kts 273°
2026-05-04 09:55 53.07812 -22.46696 39341 ft 471 kts 272°
2026-05-04 09:56 53.08038 -22.57567 39349 ft 470 kts 272°
2026-05-04 09:56 53.08254 -22.68446 39349 ft 471 kts 272°
2026-05-04 09:57 53.08460 -22.79317 39354 ft 470 kts 272°
2026-05-04 09:57 53.08656 -22.90184 39355 ft 470 kts 272°
2026-05-04 09:58 53.08812 -22.99223 39352 ft 470 kts 272°
2026-05-04 09:58 53.09018 -23.11846 39358 ft 470 kts 272°
2026-05-04 10:00 53.09602 -23.53505 39368 ft 470 kts 272°
2026-05-04 10:04 53.10293 -24.29630 39376 ft 470 kts 271°
2026-05-04 10:04 53.10352 -24.40497 39384 ft 470 kts 271°
2026-05-04 10:05 53.10402 -24.51374 39381 ft 470 kts 271°
2026-05-04 10:05 53.10441 -24.62248 39384 ft 470 kts 271°
2026-05-04 10:06 53.10470 -24.73057 39383 ft 471 kts 271°
2026-05-04 10:06 53.10490 -24.83942 39386 ft 470 kts 271°
2026-05-04 10:08 53.10480 -25.22046 39392 ft 470 kts 271°
2026-05-04 10:08 53.10455 -25.32921 39394 ft 470 kts 271°
2026-05-04 10:09 53.10420 -25.43801 39397 ft 470 kts 271°
2026-05-04 10:09 53.10375 -25.54685 39401 ft 470 kts 270°
2026-05-04 10:10 53.10320 -25.65563 39397 ft 470 kts 270°
2026-05-04 10:10 53.10255 -25.76447 39400 ft 470 kts 270°
2026-05-04 10:11 53.10181 -25.87324 39403 ft 470 kts 270°
2026-05-04 10:11 53.10096 -25.98197 39404 ft 470 kts 270°
2026-05-04 10:12 53.10002 -26.09067 39404 ft 470 kts 270°
2026-05-04 10:12 53.09897 -26.19931 39412 ft 470 kts 270°
2026-05-04 10:13 53.09783 -26.30799 39408 ft 470 kts 270°
2026-05-04 10:13 53.09659 -26.41668 39409 ft 470 kts 270°
2026-05-04 10:14 53.09525 -26.52546 39406 ft 470 kts 270°
2026-05-04 10:16 53.08889 -26.96046 39416 ft 470 kts 269°
2026-05-04 10:16 53.08706 -27.06920 39413 ft 470 kts 269°
2026-05-04 10:17 53.08513 -27.17717 39412 ft 470 kts 269°
2026-05-04 10:19 53.07639 -27.61202 39416 ft 470 kts 269°
2026-05-04 10:19 53.07397 -27.72065 39420 ft 470 kts 269°
2026-05-04 10:20 53.07144 -27.82916 39416 ft 470 kts 269°
2026-05-04 10:20 53.06882 -27.93776 39422 ft 470 kts 269°
2026-05-04 10:21 53.06609 -28.04628 39408 ft 470 kts 269°
2026-05-04 10:21 53.06327 -28.15478 39419 ft 469 kts 268°
2026-05-04 10:22 53.05885 -28.31738 39417 ft 469 kts 268°
2026-05-04 10:23 53.05579 -28.42573 39420 ft 469 kts 268°
2026-05-04 10:25 53.04254 -28.85887 39420 ft 469 kts 268°
2026-05-04 10:25 53.03899 -28.96697 39420 ft 469 kts 268°
2026-05-04 10:26 53.03533 -29.07512 39422 ft 469 kts 268°
2026-05-04 10:26 53.03159 -29.18316 39421 ft 469 kts 267°
2026-05-04 10:27 53.02774 -29.29116 39422 ft 468 kts 267°
2026-05-04 10:27 53.02380 -29.39915 39420 ft 468 kts 267°
2026-05-04 10:28 53.01976 -29.50706 39422 ft 468 kts 267°
2026-05-04 10:28 53.01565 -29.61429 39422 ft 468 kts 267°
2026-05-04 10:29 53.01142 -29.72218 39414 ft 468 kts 267°
2026-05-04 10:29 53.00709 -29.83003 39422 ft 468 kts 267°
2026-05-04 10:30 53.00266 -29.93781 39426 ft 468 kts 266°
2026-05-04 10:30 53.00222 -30.04568 39425 ft 467 kts 273°
2026-05-04 10:31 53.00610 -30.15335 39425 ft 467 kts 274°
2026-05-04 10:32 53.02120 -30.53036 39425 ft 468 kts 274°
2026-05-04 10:33 53.02520 -30.63820 39422 ft 468 kts 274°
2026-05-04 10:33 53.02909 -30.74604 39425 ft 468 kts 274°
2026-05-04 10:34 53.03290 -30.85386 39426 ft 468 kts 274°
2026-05-04 10:34 53.03661 -30.96174 39422 ft 468 kts 273°
2026-05-04 10:35 53.04022 -31.06966 39425 ft 468 kts 273°
2026-05-04 10:35 53.04373 -31.17759 39428 ft 468 kts 273°
2026-05-04 10:36 53.04715 -31.28557 39425 ft 468 kts 273°
2026-05-04 10:36 53.05047 -31.39361 39425 ft 468 kts 273°
2026-05-04 10:37 53.05369 -31.50162 39425 ft 468 kts 273°
2026-05-04 10:37 53.05681 -31.60959 39424 ft 468 kts 273°
2026-05-04 10:39 53.06696 -31.98752 39425 ft 467 kts 272°
2026-05-04 10:40 53.06963 -32.09476 39420 ft 467 kts 272°
2026-05-04 10:40 53.07221 -32.20276 39416 ft 467 kts 272°
2026-05-04 10:41 53.07469 -32.31051 39419 ft 466 kts 272°
2026-05-04 10:41 53.07707 -32.41816 39419 ft 466 kts 272°
2026-05-04 10:42 53.07935 -32.52583 39422 ft 466 kts 272°
2026-05-04 10:42 53.08154 -32.63350 39423 ft 466 kts 272°
2026-05-04 10:43 53.08362 -32.74123 39419 ft 466 kts 272°
2026-05-04 10:45 53.09101 -33.17227 39420 ft 466 kts 272°
2026-05-04 10:45 53.09261 -33.28007 39419 ft 466 kts 271°
2026-05-04 10:46 53.09412 -33.38783 39422 ft 466 kts 271°
2026-05-04 10:46 53.09529 -33.47736 39423 ft 466 kts 271°
2026-05-04 10:47 53.09662 -33.58512 39417 ft 466 kts 271°
2026-05-04 10:47 53.09785 -33.69293 39419 ft 466 kts 271°
2026-05-04 10:49 53.10179 -34.12409 39417 ft 466 kts 271°
2026-05-04 10:50 53.10253 -34.23178 39414 ft 465 kts 271°
2026-05-04 10:52 53.10453 -34.66307 39406 ft 466 kts 271°
2026-05-04 10:52 53.10478 -34.77096 39414 ft 466 kts 271°
2026-05-04 10:54 53.10483 -35.20130 39411 ft 466 kts 270°
2026-05-04 10:56 53.10333 -35.63236 39399 ft 466 kts 270°
2026-05-04 10:57 53.10271 -35.74016 39399 ft 466 kts 270°
2026-05-04 10:57 53.10199 -35.84786 39399 ft 466 kts 270°
2026-05-04 10:58 53.10117 -35.95551 39394 ft 464 kts 270°
2026-05-04 10:58 53.10027 -36.06291 39404 ft 464 kts 270°
2026-05-04 10:59 53.09926 -36.17017 39402 ft 464 kts 270°
2026-05-04 10:59 53.09816 -36.27739 39394 ft 463 kts 270°
2026-05-04 11:00 53.09697 -36.38460 39399 ft 463 kts 270°
2026-05-04 11:02 53.09124 -36.81196 39389 ft 461 kts 270°
2026-05-04 11:05 53.07647 -37.60857 39365 ft 458 kts 269°
2026-05-04 11:06 53.07411 -37.71446 39361 ft 458 kts 269°
2026-05-04 11:06 53.07165 -37.82026 39360 ft 457 kts 269°
2026-05-04 11:10 53.05199 -38.55463 39338 ft 451 kts 269°
2026-05-04 11:12 53.03888 -38.96990 39329 ft 451 kts 269°
2026-05-04 11:12 53.03537 -39.07392 39329 ft 451 kts 269°
2026-05-04 11:13 53.03176 -39.17794 39315 ft 451 kts 269°
2026-05-04 11:13 53.02807 -39.28189 39315 ft 451 kts 269°
2026-05-04 11:14 53.02428 -39.38583 39312 ft 451 kts 268°
2026-05-04 11:16 53.00828 -39.80007 39296 ft 447 kts 268°
2026-05-04 11:16 53.00409 -39.90305 39289 ft 447 kts 268°
2026-05-04 11:17 52.99980 -40.00596 39285 ft 447 kts 268°
2026-05-04 11:19 52.97589 -40.41615 39271 ft 445 kts 267°
2026-05-04 11:19 52.96976 -40.51814 39272 ft 445 kts 267°
2026-05-04 11:20 52.96354 -40.62026 39265 ft 445 kts 266°
2026-05-04 11:20 52.95722 -40.72238 39261 ft 445 kts 266°
2026-05-04 11:22 52.93127 -41.12707 39241 ft 440 kts 266°
2026-05-04 11:23 52.92459 -41.22788 39241 ft 440 kts 266°
2026-05-04 11:25 52.90064 -41.57893 39215 ft 434 kts 265°
2026-05-04 11:25 52.89368 -41.67818 39210 ft 434 kts 265°
2026-05-04 11:27 52.86133 -42.12428 39189 ft 434 kts 264°
2026-05-04 11:28 52.85390 -42.22344 39189 ft 434 kts 264°
2026-05-04 11:28 52.84639 -42.32261 39184 ft 434 kts 264°
2026-05-04 11:29 52.83880 -42.42177 39174 ft 435 kts 264°
2026-05-04 11:29 52.83117 -42.52031 39167 ft 435 kts 264°
2026-05-04 11:33 52.77511 -43.21322 39117 ft 434 kts 264°
2026-05-04 11:33 52.76681 -43.31161 39127 ft 432 kts 263°
2026-05-04 11:34 52.75844 -43.40989 39127 ft 432 kts 263°
2026-05-04 11:34 52.75142 -43.49151 39113 ft 432 kts 263°
2026-05-04 11:35 52.74290 -43.58969 39110 ft 432 kts 263°
2026-05-04 11:35 52.73429 -43.68785 39101 ft 432 kts 263°
2026-05-04 11:36 52.72561 -43.78592 39102 ft 432 kts 263°
2026-05-04 11:36 52.71688 -43.88367 39090 ft 430 kts 262°
2026-05-04 11:37 52.70810 -43.98101 39081 ft 429 kts 262°
2026-05-04 11:37 52.69931 -44.07751 39081 ft 429 kts 262°
2026-05-04 11:38 52.69038 -44.17465 39077 ft 429 kts 262°
2026-05-04 11:38 52.68136 -44.27196 39070 ft 430 kts 262°
2026-05-04 11:39 52.67224 -44.36932 39068 ft 430 kts 262°
2026-05-04 11:41 52.64012 -44.70549 39051 ft 422 kts 261°
2026-05-04 11:41 52.63082 -44.80091 39056 ft 422 kts 261°
2026-05-04 11:42 52.62144 -44.89633 39035 ft 422 kts 261°
2026-05-04 11:42 52.61199 -44.99167 39039 ft 422 kts 260°
2026-05-04 11:43 52.60247 -45.08690 39026 ft 422 kts 260°
2026-05-04 11:43 52.59287 -45.18211 39025 ft 422 kts 260°
2026-05-04 11:44 52.58319 -45.27728 39020 ft 422 kts 260°
2026-05-04 11:44 52.57345 -45.37234 39006 ft 422 kts 260°
2026-05-04 11:45 52.56362 -45.46738 39009 ft 422 kts 260°
2026-05-04 11:45 52.55380 -45.56171 38989 ft 421 kts 259°
2026-05-04 11:46 52.54388 -45.65613 38992 ft 418 kts 259°
2026-05-04 11:46 52.53386 -45.75075 38993 ft 417 kts 259°
2026-05-04 11:47 52.52391 -45.84392 38978 ft 417 kts 259°
2026-05-04 11:47 52.51382 -45.93768 38991 ft 417 kts 258°
2026-05-04 11:48 52.50364 -46.03165 38968 ft 419 kts 258°
2026-05-04 11:48 52.49336 -46.12571 38967 ft 419 kts 258°
2026-05-04 11:49 52.48302 -46.21965 38963 ft 418 kts 257°
2026-05-04 11:49 52.47260 -46.31356 38946 ft 418 kts 257°
2026-05-04 11:50 52.46211 -46.40735 38945 ft 418 kts 257°
2026-05-04 11:50 52.45155 -46.50109 38939 ft 418 kts 257°
2026-05-04 11:51 52.44093 -46.59473 38935 ft 418 kts 257°
2026-05-04 11:51 52.43022 -46.68837 38930 ft 418 kts 257°
2026-05-04 11:52 52.41946 -46.78186 38923 ft 417 kts 256°
2026-05-04 11:52 52.40869 -46.87466 38926 ft 418 kts 256°
2026-05-04 11:53 52.39774 -46.96831 38912 ft 419 kts 255°
2026-05-04 11:53 52.38671 -47.06205 38902 ft 419 kts 255°
2026-05-04 11:55 52.34181 -47.43673 38876 ft 421 kts 255°
2026-05-04 11:56 52.33036 -47.53060 38876 ft 421 kts 254°
2026-05-04 11:56 52.31885 -47.62432 38876 ft 421 kts 254°
2026-05-04 11:57 52.30727 -47.71801 38869 ft 421 kts 254°
2026-05-04 11:57 52.29555 -47.81203 38856 ft 423 kts 254°
2026-05-04 11:58 52.28372 -47.90635 38855 ft 425 kts 253°
2026-05-04 11:58 52.27175 -48.00113 38854 ft 427 kts 253°
2026-05-04 11:59 52.25969 -48.09602 38837 ft 427 kts 253°
2026-05-04 11:59 52.24756 -48.19085 38837 ft 427 kts 253°
2026-05-04 12:00 52.23535 -48.28562 38837 ft 427 kts 253°
2026-05-04 12:00 52.22307 -48.38039 38826 ft 427 kts 253°
2026-05-04 12:01 52.21070 -48.47503 38823 ft 428 kts 252°
2026-05-04 12:02 52.16622 -48.81026 38791 ft 435 kts 252°
2026-05-04 12:03 52.15337 -48.90583 38793 ft 435 kts 252°
2026-05-04 12:03 52.14035 -49.00201 38802 ft 435 kts 252°
2026-05-04 12:04 52.12720 -49.09838 38775 ft 438 kts 251°
2026-05-04 12:04 52.11391 -49.19511 38770 ft 438 kts 251°
2026-05-04 12:05 52.10055 -49.29184 38760 ft 438 kts 251°
2026-05-04 12:05 52.08711 -49.38854 38758 ft 438 kts 251°
2026-05-04 12:06 52.07357 -49.48526 38747 ft 440 kts 251°
2026-05-04 12:06 52.05983 -49.58263 38752 ft 443 kts 251°
2026-05-04 12:07 52.04596 -49.68038 38736 ft 445 kts 251°
2026-05-04 12:07 52.03200 -49.77834 38725 ft 445 kts 251°
2026-05-04 12:08 52.01796 -49.87619 38728 ft 445 kts 250°
2026-05-04 12:08 52.00373 -49.97391 38707 ft 444 kts 249°
2026-05-04 12:09 51.98391 -50.06777 38713 ft 439 kts 244°
2026-05-04 12:09 51.96192 -50.16003 38692 ft 439 kts 242°
2026-05-04 12:10 51.93940 -50.25226 38704 ft 440 kts 242°
2026-05-04 12:10 51.91687 -50.34453 38697 ft 440 kts 242°
2026-05-04 12:11 51.89427 -50.43708 38695 ft 444 kts 243°
2026-05-04 12:11 51.87146 -50.53018 38680 ft 445 kts 242°
2026-05-04 12:12 51.84874 -50.62265 38677 ft 445 kts 242°
2026-05-04 12:12 51.82579 -50.71569 38664 ft 445 kts 242°
2026-05-04 12:14 51.73323 -51.08662 38644 ft 446 kts 242°
2026-05-04 12:15 51.70980 -51.17949 38631 ft 448 kts 242°
2026-05-04 12:15 51.68624 -51.27255 38621 ft 448 kts 242°
2026-05-04 12:16 51.66262 -51.36552 38625 ft 448 kts 242°
2026-05-04 12:16 51.63891 -51.45839 38617 ft 449 kts 242°
2026-05-04 12:17 51.61498 -51.55170 38612 ft 453 kts 242°
2026-05-04 12:17 51.59071 -51.64587 38590 ft 458 kts 242°
2026-05-04 12:18 51.56627 -51.74047 38591 ft 458 kts 242°
2026-05-04 12:18 51.54177 -51.83495 38580 ft 458 kts 241°
2026-05-04 12:19 51.51717 -51.92936 38571 ft 458 kts 241°
2026-05-04 12:19 51.49249 -52.02366 38577 ft 459 kts 241°
2026-05-04 12:20 51.46763 -52.11817 38562 ft 460 kts 241°
2026-05-04 12:20 51.44268 -52.21272 38550 ft 461 kts 241°
2026-05-04 12:21 51.41765 -52.30720 38548 ft 461 kts 241°
2026-05-04 12:21 51.39255 -52.40153 38538 ft 460 kts 241°
2026-05-04 12:22 51.36735 -52.49583 38565 ft 462 kts 241°
2026-05-04 12:22 51.34182 -52.59083 38528 ft 467 kts 241°
2026-05-04 12:23 51.32047 -52.67014 38530 ft 468 kts 241°
2026-05-04 12:23 51.29466 -52.76565 38509 ft 468 kts 241°
2026-05-04 12:24 51.26458 -52.87647 38510 ft 468 kts 241°
2026-05-04 12:24 51.24283 -52.95623 38497 ft 469 kts 241°
2026-05-04 12:25 51.21667 -53.05178 38512 ft 470 kts 241°
2026-05-04 12:25 51.19042 -53.14730 38480 ft 471 kts 241°
2026-05-04 12:26 51.16404 -53.24291 38623 ft 472 kts 241°
2026-05-04 12:26 51.15047 -53.29037 38771 ft 470 kts 239°
2026-05-04 12:26 51.13638 -53.33736 38921 ft 470 kts 239°
2026-05-04 12:27 51.12207 -53.38411 39093 ft 471 kts 239°
2026-05-04 12:27 51.10784 -53.43039 39150 ft 472 kts 239°
2026-05-04 12:27 51.09341 -53.47740 39251 ft 473 kts 239°
2026-05-04 12:27 51.07903 -53.52444 39403 ft 473 kts 239°
2026-05-04 12:28 51.05028 -53.61884 39452 ft 475 kts 239°
2026-05-04 12:28 51.02144 -53.71350 39435 ft 476 kts 239°
2026-05-04 12:29 50.99249 -53.80820 39444 ft 477 kts 239°
2026-05-04 12:29 50.96338 -53.90297 39437 ft 479 kts 239°
2026-05-04 12:30 50.93410 -53.99794 39418 ft 479 kts 239°
2026-05-04 12:30 50.90477 -54.09270 39417 ft 479 kts 239°
2026-05-04 12:31 50.87533 -54.18743 39405 ft 479 kts 239°
2026-05-04 12:31 50.84580 -54.28205 39406 ft 480 kts 239°
2026-05-04 12:32 50.80124 -54.42417 39390 ft 481 kts 239°
2026-05-04 12:33 50.77141 -54.51889 39380 ft 481 kts 239°
2026-05-04 12:33 50.74152 -54.61342 39381 ft 481 kts 239°
2026-05-04 12:34 50.71152 -54.70791 39374 ft 482 kts 239°
2026-05-04 12:34 50.68140 -54.80244 39370 ft 483 kts 239°
2026-05-04 12:35 50.65119 -54.89689 39364 ft 483 kts 238°
2026-05-04 12:35 50.62089 -54.99125 39356 ft 483 kts 238°
2026-05-04 12:36 50.59054 -55.08542 39354 ft 483 kts 238°
2026-05-04 12:36 50.56009 -55.17953 39345 ft 483 kts 238°
2026-05-04 12:37 50.52958 -55.27350 39346 ft 482 kts 238°
2026-05-04 12:37 50.49897 -55.36738 39331 ft 483 kts 238°
2026-05-04 12:38 50.46851 -55.46047 39333 ft 483 kts 238°
2026-05-04 12:38 50.43776 -55.55410 39322 ft 483 kts 238°
2026-05-04 12:39 50.40687 -55.64776 39323 ft 484 kts 238°
2026-05-04 12:39 50.37587 -55.74145 39309 ft 484 kts 238°
2026-05-04 12:40 50.34476 -55.83510 39302 ft 485 kts 238°
2026-05-04 12:40 50.31359 -55.92861 39305 ft 485 kts 238°
2026-05-04 12:41 50.28231 -56.02209 39294 ft 485 kts 238°
2026-05-04 12:41 50.25094 -56.11549 39278 ft 485 kts 238°
2026-05-04 12:42 50.21948 -56.20881 39286 ft 485 kts 238°
2026-05-04 12:42 50.18793 -56.30206 39296 ft 485 kts 238°
2026-05-04 12:43 50.15640 -56.39493 39279 ft 484 kts 238°
2026-05-04 12:43 50.12481 -56.48760 39277 ft 484 kts 238°
2026-05-04 12:44 50.09316 -56.58012 39281 ft 484 kts 238°
2026-05-04 12:44 50.06146 -56.67244 39269 ft 484 kts 238°
2026-05-04 12:45 50.02987 -56.76411 39268 ft 483 kts 238°
2026-05-04 12:45 49.99784 -56.85673 39259 ft 483 kts 238°
2026-05-04 12:46 49.96595 -56.94862 39248 ft 483 kts 238°
2026-05-04 12:46 49.93399 -57.04036 39248 ft 483 kts 238°
2026-05-04 12:47 49.90197 -57.13195 39250 ft 483 kts 238°
2026-05-04 12:47 49.86991 -57.22332 39234 ft 482 kts 238°
2026-05-04 12:48 49.83805 -57.31381 39218 ft 482 kts 238°
2026-05-04 12:48 49.80591 -57.40479 39220 ft 482 kts 238°
2026-05-04 12:49 49.77370 -57.49562 39231 ft 482 kts 238°
2026-05-04 12:49 49.74137 -57.58644 39212 ft 482 kts 238°
2026-05-04 12:50 49.70898 -57.67714 39217 ft 482 kts 238°
2026-05-04 12:50 49.67640 -57.76805 39196 ft 485 kts 238°
2026-05-04 12:51 49.64365 -57.85912 39196 ft 486 kts 238°
2026-05-04 12:51 49.61080 -57.95016 39178 ft 485 kts 238°
2026-05-04 12:52 49.57794 -58.04092 39176 ft 485 kts 237°
2026-05-04 12:52 49.54500 -58.13153 39169 ft 485 kts 237°
2026-05-04 12:53 49.51200 -58.22202 39164 ft 485 kts 237°
2026-05-04 12:53 49.47892 -58.31241 39170 ft 485 kts 237°
2026-05-04 12:54 49.44579 -58.40261 39155 ft 484 kts 237°
2026-05-04 12:54 49.41262 -58.49262 39164 ft 484 kts 237°
2026-05-04 12:55 49.37937 -58.58253 39158 ft 484 kts 237°
2026-05-04 12:55 49.34605 -58.67232 39177 ft 484 kts 237°
2026-05-04 12:56 49.31261 -58.76211 39151 ft 485 kts 237°
2026-05-04 12:56 49.27906 -58.85191 39157 ft 486 kts 237°
2026-05-04 12:57 49.24545 -58.94156 39162 ft 486 kts 237°
2026-05-04 12:57 49.21174 -59.03117 39158 ft 486 kts 237°
2026-05-04 12:58 49.17799 -59.12057 39146 ft 486 kts 237°
2026-05-04 12:58 49.14417 -59.20984 39152 ft 486 kts 237°
2026-05-04 12:59 49.11029 -59.29899 39155 ft 485 kts 237°
2026-05-04 12:59 49.07632 -59.38808 39155 ft 485 kts 237°
2026-05-04 13:00 49.04230 -59.47695 39155 ft 486 kts 237°
2026-05-04 13:00 49.00818 -59.56582 39154 ft 486 kts 237°
2026-05-04 13:01 48.97401 -59.65451 39150 ft 486 kts 237°
2026-05-04 13:01 48.93971 -59.74326 39150 ft 487 kts 237°
2026-05-04 13:02 48.90533 -59.83190 39151 ft 486 kts 237°
2026-05-04 13:02 48.87091 -59.92037 39147 ft 486 kts 237°
2026-05-04 13:03 48.83667 -60.00807 39155 ft 486 kts 237°
2026-05-04 13:03 48.80190 -60.09681 39155 ft 486 kts 237°
2026-05-04 13:04 48.76737 -60.18467 39164 ft 486 kts 237°
2026-05-04 13:04 48.73296 -60.27193 39158 ft 485 kts 237°
2026-05-04 13:05 48.69834 -60.35944 39175 ft 484 kts 237°
2026-05-04 13:05 48.66366 -60.44680 39175 ft 484 kts 237°
2026-05-04 13:06 48.62891 -60.53404 39199 ft 484 kts 237°
2026-05-04 13:06 48.59411 -60.62113 39180 ft 484 kts 237°
2026-05-04 13:07 48.55925 -60.70811 39191 ft 484 kts 237°
2026-05-04 13:07 48.52433 -60.79494 39197 ft 484 kts 237°
2026-05-04 13:08 48.48934 -60.88167 39198 ft 484 kts 237°
2026-05-04 13:08 48.45432 -60.96817 39202 ft 483 kts 237°
2026-05-04 13:09 48.41927 -61.05449 39207 ft 483 kts 237°
2026-05-04 13:09 48.38417 -61.14064 39216 ft 483 kts 237°
2026-05-04 13:10 48.35494 -61.21218 39225 ft 483 kts 237°
2026-05-04 13:10 48.31971 -61.29815 39226 ft 482 kts 237°
2026-05-04 13:11 48.28449 -61.38382 39231 ft 482 kts 237°
2026-05-04 13:11 48.24921 -61.46936 39252 ft 481 kts 236°
2026-05-04 13:12 48.21399 -61.55449 39251 ft 481 kts 236°
2026-05-04 13:12 48.17869 -61.63955 39261 ft 480 kts 237°
2026-05-04 13:13 48.14355 -61.72394 39262 ft 477 kts 236°
2026-05-04 13:13 48.10849 -61.80790 39284 ft 476 kts 236°
2026-05-04 13:14 48.07338 -61.89170 39296 ft 475 kts 236°
2026-05-04 13:14 48.03824 -61.97533 39297 ft 475 kts 236°
2026-05-04 13:15 48.00328 -62.05826 39304 ft 470 kts 236°
2026-05-04 13:15 47.96844 -62.14066 39314 ft 470 kts 236°
2026-05-04 13:16 47.93351 -62.22300 39331 ft 470 kts 236°
2026-05-04 13:16 47.89847 -62.30534 39354 ft 470 kts 236°
2026-05-04 13:17 47.86340 -62.38754 39343 ft 471 kts 236°
2026-05-04 13:17 47.82819 -62.46982 39340 ft 471 kts 236°
2026-05-04 13:18 47.79295 -62.55193 39355 ft 470 kts 236°
2026-05-04 13:18 47.75771 -62.63377 39366 ft 470 kts 236°
2026-05-04 13:19 47.72265 -62.71495 39385 ft 470 kts 236°
2026-05-04 13:19 47.68737 -62.79640 39383 ft 468 kts 236°
2026-05-04 13:20 47.65201 -62.87781 39405 ft 469 kts 236°
2026-05-04 13:20 47.61654 -62.95919 39405 ft 469 kts 236°
2026-05-04 13:21 47.58101 -63.04046 39414 ft 469 kts 236°
2026-05-04 13:21 47.54543 -63.12164 39423 ft 470 kts 236°
2026-05-04 13:22 47.50977 -63.20274 39417 ft 470 kts 236°
2026-05-04 13:22 47.47400 -63.28390 39443 ft 471 kts 236°
2026-05-04 13:23 47.43815 -63.36494 39438 ft 470 kts 236°
2026-05-04 13:23 47.40234 -63.44566 39450 ft 468 kts 236°
2026-05-04 13:24 47.36660 -63.52602 39467 ft 468 kts 236°
2026-05-04 13:24 47.33081 -63.60621 39469 ft 469 kts 236°
2026-05-04 13:25 47.27690 -63.72658 39473 ft 468 kts 236°
2026-05-04 13:25 47.24100 -63.80646 39484 ft 467 kts 236°
2026-05-04 13:26 47.20504 -63.88625 39486 ft 467 kts 236°
2026-05-04 13:26 47.16907 -63.96582 39498 ft 467 kts 236°
2026-05-04 13:27 47.13311 -64.04515 39498 ft 466 kts 236°
2026-05-04 13:27 47.09705 -64.12445 39518 ft 467 kts 236°
2026-05-04 13:28 47.06093 -64.20368 39532 ft 467 kts 236°
2026-05-04 13:28 47.02472 -64.28287 39534 ft 467 kts 236°
2026-05-04 13:29 46.98844 -64.36198 39541 ft 468 kts 236°
2026-05-04 13:29 46.95207 -64.44106 39552 ft 468 kts 236°
2026-05-04 13:30 46.91570 -64.51991 39553 ft 468 kts 236°
2026-05-04 13:30 46.87952 -64.59815 39559 ft 468 kts 236°
2026-05-04 13:31 46.84308 -64.67670 39558 ft 467 kts 236°
2026-05-04 13:31 46.80654 -64.75526 39565 ft 468 kts 236°
2026-05-04 13:32 46.76988 -64.83386 39580 ft 469 kts 236°
2026-05-04 13:32 46.73315 -64.91237 39579 ft 469 kts 236°
2026-05-04 13:33 46.69637 -64.99078 39586 ft 468 kts 236°
2026-05-04 13:33 46.65959 -65.06896 39589 ft 467 kts 236°
2026-05-04 13:34 46.62281 -65.14692 39605 ft 467 kts 236°
2026-05-04 13:34 46.58602 -65.22470 39619 ft 467 kts 236°
2026-05-04 13:35 46.53070 -65.34122 39628 ft 466 kts 236°
2026-05-04 13:36 46.49382 -65.41864 39631 ft 466 kts 236°
2026-05-04 13:36 46.45691 -65.49591 39648 ft 466 kts 236°
2026-05-04 13:37 46.41995 -65.57308 39648 ft 466 kts 236°
2026-05-04 13:37 46.38318 -65.64962 39659 ft 466 kts 236°
2026-05-04 13:38 46.34608 -65.72666 39658 ft 466 kts 236°
2026-05-04 13:38 46.30892 -65.80360 39661 ft 466 kts 236°
2026-05-04 13:39 46.27169 -65.88045 39673 ft 466 kts 235°
2026-05-04 13:39 46.23445 -65.95715 39680 ft 466 kts 235°
2026-05-04 13:40 46.19716 -66.03373 39680 ft 466 kts 235°
2026-05-04 13:40 46.15979 -66.11026 39691 ft 466 kts 235°
2026-05-04 13:41 46.12240 -66.18662 39694 ft 466 kts 235°
2026-05-04 13:41 46.08499 -66.26283 39711 ft 465 kts 235°
2026-05-04 13:42 46.02899 -66.37651 39737 ft 464 kts 235°
2026-05-04 13:42 45.99157 -66.45221 39736 ft 464 kts 235°
2026-05-04 13:43 45.95411 -66.52779 39735 ft 464 kts 235°
2026-05-04 13:43 45.91668 -66.60311 39727 ft 463 kts 235°
2026-05-04 13:44 45.87924 -66.67825 39730 ft 463 kts 235°
2026-05-04 13:44 45.84176 -66.75328 39738 ft 463 kts 235°
2026-05-04 13:45 45.80421 -66.82824 39742 ft 462 kts 235°
2026-05-04 13:45 45.76670 -66.90292 39747 ft 461 kts 235°
2026-05-04 13:46 45.72917 -66.97746 39755 ft 461 kts 235°
2026-05-04 13:46 45.69161 -67.05185 39760 ft 461 kts 235°
2026-05-04 13:47 45.65397 -67.12620 39768 ft 461 kts 235°
2026-05-04 13:47 45.61641 -67.20021 39765 ft 460 kts 235°
2026-05-04 13:48 45.57885 -67.27400 39766 ft 459 kts 235°
2026-05-04 13:48 45.54151 -67.34719 39774 ft 459 kts 235°
2026-05-04 13:49 45.50388 -67.42076 39778 ft 459 kts 235°
2026-05-04 13:49 45.46626 -67.49412 39779 ft 458 kts 235°
2026-05-04 13:50 45.42863 -67.56731 39791 ft 458 kts 235°
2026-05-04 13:50 45.39094 -67.64041 39795 ft 458 kts 235°
2026-05-04 13:51 45.35324 -67.71337 39791 ft 458 kts 235°
2026-05-04 13:51 45.31208 -67.78251 39798 ft 458 kts 230°
2026-05-04 13:52 45.24818 -67.88365 39802 ft 459 kts 229°
2026-05-04 13:53 45.20540 -67.95093 39794 ft 459 kts 230°
2026-05-04 13:53 45.16256 -68.01812 39801 ft 460 kts 229°
2026-05-04 13:54 45.09816 -68.11879 39801 ft 460 kts 229°
2026-05-04 13:55 45.03371 -68.21917 39802 ft 459 kts 229°
2026-05-04 13:55 44.96927 -68.31919 39806 ft 459 kts 229°
2026-05-04 13:56 44.93355 -68.37447 39807 ft 459 kts 229°
2026-05-04 13:57 44.86898 -68.47412 39816 ft 458 kts 229°
2026-05-04 13:58 44.78312 -68.60609 39812 ft 456 kts 229°
2026-05-04 13:58 44.71867 -68.70472 39813 ft 457 kts 229°
2026-05-04 13:59 44.67593 -68.76995 39815 ft 457 kts 229°
2026-05-04 14:00 44.61115 -68.86852 39811 ft 458 kts 229°
2026-05-04 14:00 44.54632 -68.96682 39818 ft 457 kts 229°
2026-05-04 14:01 44.50318 -69.03204 39817 ft 456 kts 229°
2026-05-04 14:02 44.43839 -69.12970 39823 ft 456 kts 229°
2026-05-04 14:02 44.39519 -69.19462 39824 ft 455 kts 229°
2026-05-04 14:03 44.35200 -69.25938 39820 ft 455 kts 229°
2026-05-04 14:03 44.30910 -69.32356 39826 ft 455 kts 229°
2026-05-04 14:04 44.24439 -69.42009 39832 ft 455 kts 229°
2026-05-04 14:04 44.20114 -69.48442 39840 ft 454 kts 229°
2026-05-04 14:05 44.13619 -69.58075 39847 ft 455 kts 228°
2026-05-04 14:06 44.09280 -69.64491 39852 ft 455 kts 228°
2026-05-04 14:06 44.04935 -69.70903 39844 ft 455 kts 228°
2026-05-04 14:07 44.00592 -69.77295 39844 ft 455 kts 228°
2026-05-04 14:07 43.96243 -69.83683 39849 ft 455 kts 228°
2026-05-04 14:08 43.91892 -69.90059 39869 ft 454 kts 229°
2026-05-04 14:08 43.87547 -69.96411 39867 ft 454 kts 228°
2026-05-04 14:09 43.81021 -70.05926 39870 ft 454 kts 228°
2026-05-04 14:10 43.74494 -70.15410 39851 ft 453 kts 228°
2026-05-04 14:10 43.70140 -70.21718 39850 ft 453 kts 228°
2026-05-04 14:11 43.65788 -70.28010 39853 ft 453 kts 228°
2026-05-04 14:11 43.59250 -70.37436 39859 ft 453 kts 228°
2026-05-04 14:12 43.54887 -70.43707 39862 ft 453 kts 228°
2026-05-04 14:13 43.48365 -70.53057 39853 ft 453 kts 229°
2026-05-04 14:13 43.43870 -70.59120 39857 ft 454 kts 221°
2026-05-04 14:14 43.38360 -70.63455 39861 ft 462 kts 205°
2026-05-04 14:14 43.29257 -70.67932 39858 ft 463 kts 204°
2026-05-04 14:15 43.17124 -70.73861 39852 ft 463 kts 204°
2026-05-04 14:16 43.08030 -70.78305 39851 ft 463 kts 204°
2026-05-04 14:17 42.98927 -70.82740 39852 ft 465 kts 204°
2026-05-04 14:18 42.89721 -70.87213 39862 ft 469 kts 204°
2026-05-04 14:19 42.77387 -70.93180 39894 ft 471 kts 204°
2026-05-04 14:19 42.71207 -70.96160 39897 ft 471 kts 204°
2026-05-04 14:20 42.65071 -70.99112 39897 ft 471 kts 203°
2026-05-04 14:20 42.58859 -71.02096 39895 ft 470 kts 204°
2026-05-04 14:21 42.49648 -71.06508 39900 ft 470 kts 203°
2026-05-04 14:21 42.43482 -71.09454 39902 ft 470 kts 204°
2026-05-04 14:22 42.37327 -71.12387 39914 ft 468 kts 204°
2026-05-04 14:22 42.31183 -71.15311 39918 ft 468 kts 204°
2026-05-04 14:23 42.21970 -71.19683 39927 ft 467 kts 204°
2026-05-04 14:24 42.15841 -71.22583 39935 ft 466 kts 204°
2026-05-04 14:24 42.09723 -71.25473 39944 ft 466 kts 204°
2026-05-04 14:25 42.03614 -71.28408 39946 ft 464 kts 206°
2026-05-04 14:25 41.98050 -71.32589 39952 ft 455 kts 221°
2026-05-04 14:25 41.95688 -71.35386 39956 ft 451 kts 228°
2026-05-04 14:26 41.91378 -71.41512 39952 ft 451 kts 230°
2026-05-04 14:26 41.87106 -71.47673 39723 ft 450 kts 229°
2026-05-04 14:27 41.84975 -71.50737 39497 ft 449 kts 229°
2026-05-04 14:27 41.82840 -71.53801 39269 ft 450 kts 229°
2026-05-04 14:27 41.80702 -71.56865 39072 ft 450 kts 230°
2026-05-04 14:27 41.78564 -71.59926 38815 ft 447 kts 230°
2026-05-04 14:28 41.76447 -71.62951 38259 ft 444 kts 230°
2026-05-04 14:28 41.74342 -71.65957 37650 ft 441 kts 230°
2026-05-04 14:28 41.72251 -71.68939 37049 ft 438 kts 230°
2026-05-04 14:28 41.70172 -71.71902 36454 ft 435 kts 230°
2026-05-04 14:29 41.66038 -71.77786 35221 ft 433 kts 230°
2026-05-04 14:29 41.61934 -71.83616 33796 ft 435 kts 230°
2026-05-04 14:30 41.59857 -71.86562 32995 ft 435 kts 230°
2026-05-04 14:30 41.57785 -71.89498 32242 ft 434 kts 230°
2026-05-04 14:30 41.53636 -71.95367 30699 ft 435 kts 230°
2026-05-04 14:31 41.51552 -71.98311 29926 ft 436 kts 230°
2026-05-04 14:31 41.47411 -72.04148 28803 ft 429 kts 230°
2026-05-04 14:32 41.43337 -72.09881 27684 ft 422 kts 230°
2026-05-04 14:32 41.41324 -72.12710 27136 ft 419 kts 230°
2026-05-04 14:32 41.39323 -72.15520 26591 ft 416 kts 230°
2026-05-04 14:32 41.37338 -72.18303 26052 ft 413 kts 230°
2026-05-04 14:33 41.35369 -72.21062 25508 ft 410 kts 230°
2026-05-04 14:33 41.33409 -72.23806 24973 ft 407 kts 230°
2026-05-04 14:33 41.31466 -72.26525 24441 ft 404 kts 230°
2026-05-04 14:33 41.29531 -72.29228 23891 ft 402 kts 230°
2026-05-04 14:34 41.27611 -72.31910 23338 ft 400 kts 230°
2026-05-04 14:34 41.25699 -72.34577 22755 ft 396 kts 230°
2026-05-04 14:34 41.23806 -72.37214 22207 ft 393 kts 230°
2026-05-04 14:34 41.21925 -72.39833 21690 ft 390 kts 230°
2026-05-04 14:35 41.20060 -72.42428 21152 ft 387 kts 230°
2026-05-04 14:35 41.18211 -72.44999 20620 ft 383 kts 230°
2026-05-04 14:35 41.16379 -72.47542 20083 ft 380 kts 230°
2026-05-04 14:35 41.14561 -72.50065 19552 ft 377 kts 230°
2026-05-04 14:36 41.12759 -72.52564 19020 ft 373 kts 230°
2026-05-04 14:36 41.10993 -72.55010 18474 ft 371 kts 230°
2026-05-04 14:36 41.09218 -72.57467 17922 ft 367 kts 230°
2026-05-04 14:36 41.07460 -72.59899 17353 ft 363 kts 230°
2026-05-04 14:37 41.05720 -72.62304 16807 ft 360 kts 230°
2026-05-04 14:37 41.03994 -72.64687 16254 ft 357 kts 230°
2026-05-04 14:37 41.02277 -72.67058 15735 ft 355 kts 230°
2026-05-04 14:37 41.00575 -72.69404 15193 ft 352 kts 229°
2026-05-04 14:38 40.98889 -72.71727 14674 ft 349 kts 229°
2026-05-04 14:38 40.97211 -72.74036 14142 ft 347 kts 229°
2026-05-04 14:38 40.95545 -72.76328 13610 ft 344 kts 229°
2026-05-04 14:38 40.93927 -72.78620 13036 ft 339 kts 232°
2026-05-04 14:39 40.92658 -72.81203 12482 ft 333 kts 246°
2026-05-04 14:39 40.91800 -72.84028 11901 ft 329 kts 251°
2026-05-04 14:39 40.91039 -72.86865 11332 ft 326 kts 251°
2026-05-04 14:40 40.89576 -72.92331 10831 ft 300 kts 251°
2026-05-04 14:40 40.88892 -72.94862 10703 ft 285 kts 251°
2026-05-04 14:40 40.88239 -72.97268 10570 ft 272 kts 251°
2026-05-04 14:40 40.87616 -72.99561 10435 ft 259 kts 251°
2026-05-04 14:41 40.87022 -73.01744 10304 ft 247 kts 251°
2026-05-04 14:41 40.86449 -73.03844 10173 ft 240 kts 251°
2026-05-04 14:41 40.85320 -73.07982 9914 ft 243 kts 251°
2026-05-04 14:42 40.84127 -73.12350 9615 ft 254 kts 251°
2026-05-04 14:42 40.83523 -73.14554 9060 ft 256 kts 250°
2026-05-04 14:42 40.82999 -73.16464 8716 ft 254 kts 250°
2026-05-04 14:43 40.82367 -73.18768 8374 ft 252 kts 250°
2026-05-04 14:43 40.81773 -73.20931 8067 ft 250 kts 250°
2026-05-04 14:43 40.81182 -73.23082 7741 ft 248 kts 250°
2026-05-04 14:43 40.80595 -73.25222 7435 ft 247 kts 250°
2026-05-04 14:44 40.80010 -73.27345 7113 ft 245 kts 250°
2026-05-04 14:44 40.79450 -73.29459 6796 ft 243 kts 253°
2026-05-04 14:44 40.79200 -73.31661 6496 ft 244 kts 266°
2026-05-04 14:44 40.79209 -73.33901 6155 ft 244 kts 269°
2026-05-04 14:45 40.79260 -73.36133 5820 ft 243 kts 269°
2026-05-04 14:45 40.79307 -73.38353 5520 ft 241 kts 269°
2026-05-04 14:45 40.79335 -73.39818 5317 ft 241 kts 269°
2026-05-04 14:45 40.79386 -73.42745 4889 ft 240 kts 268°
2026-05-04 14:46 40.79423 -73.44943 4571 ft 239 kts 268°
2026-05-04 14:46 40.79462 -73.47136 4264 ft 238 kts 268°
2026-05-04 14:46 40.79503 -73.49309 3948 ft 236 kts 268°
2026-05-04 14:46 40.79536 -73.51476 3657 ft 234 kts 268°
2026-05-04 14:47 40.79570 -73.53574 3478 ft 223 kts 267°
2026-05-04 14:47 40.79593 -73.54910 3370 ft 216 kts 267°
2026-05-04 14:47 40.79626 -73.56873 3197 ft 207 kts 267°
2026-05-04 14:47 40.79619 -73.58700 3069 ft 197 kts 263°
2026-05-04 14:48 40.79427 -73.60451 2975 ft 184 kts 253°
2026-05-04 14:48 40.79028 -73.62023 2986 ft 178 kts 245°
2026-05-04 14:48 40.78453 -73.63441 2985 ft 177 kts 236°
2026-05-04 14:48 40.77726 -73.64685 2987 ft 162 kts 230°
2026-05-04 14:49 40.76909 -73.65667 2909 ft 161 kts 218°
2026-05-04 14:49 40.75976 -73.66459 2695 ft 159 kts 215°
2026-05-04 14:49 40.75036 -73.67231 2472 ft 160 kts 215°
2026-05-04 14:49 40.74089 -73.67979 2250 ft 160 kts 214°
2026-05-04 14:50 40.73135 -73.68725 2030 ft 158 kts 213°
2026-05-04 14:50 40.72225 -73.69440 1798 ft 145 kts 214°
2026-05-04 14:50 40.71388 -73.70100 1627 ft 137 kts 214°
2026-05-04 14:50 40.70593 -73.70726 1441 ft 129 kts 216°
2026-05-04 14:51 40.69851 -73.71307 1259 ft 119 kts 214°
2026-05-04 14:51 40.69154 -73.71854 1108 ft 116 kts 213°
2026-05-04 14:51 40.68464 -73.72411 963 ft 117 kts 214°
2026-05-04 14:51 40.67762 -73.72964 824 ft 119 kts 212°
2026-05-04 14:52 40.67042 -73.73518 678 ft 121 kts 213°
2026-05-04 14:52 40.66311 -73.74084 490 ft 123 kts 211°
2026-05-04 14:52 40.65581 -73.74660 302 ft 121 kts 214°
2026-05-04 14:52 40.64860 -73.75217 157 ft 122 kts 211°
2026-05-04 14:53 40.64123 -73.75797 44 ft 121 kts 214°
2026-05-04 14:53 40.63464 -73.76316 31 ft 92 kts 210°
2026-05-04 14:53 40.63060 -73.76651 29 ft 46 kts 223°
2026-05-04 14:53 40.62956 -73.76828 27 ft 10 kts 239°
2026-05-04 14:54 40.62926 -73.76917 27 ft 11 kts 260°
2026-05-04 14:54 40.62949 -73.77016 28 ft 14 kts 301°
2026-05-04 14:54 40.63004 -73.77135 31 ft 16 kts 301°
2026-05-04 14:54 40.63064 -73.77267 34 ft 18 kts 301°
2026-05-04 14:55 40.63134 -73.77424 35 ft 21 kts 301°
2026-05-04 14:55 40.63214 -73.77599 35 ft 24 kts 300°
2026-05-04 14:55 40.63306 -73.77801 33 ft 27 kts 301°
2026-05-04 14:55 40.63404 -73.78026 30 ft 30 kts 299°
2026-05-04 14:56 40.63506 -73.78258 31 ft 29 kts 301°
2026-05-04 14:56 40.63596 -73.78455 35 ft 25 kts 301°
2026-05-04 14:56 40.63687 -73.78655 35 ft 26 kts 301°
2026-05-04 14:56 40.63783 -73.78868 32 ft 29 kts 301°
2026-05-04 14:57 40.63872 -73.79063 29 ft 20 kts 300°
2026-05-04 14:57 40.63950 -73.79236 26 ft 24 kts 301°
2026-05-04 14:57 40.64034 -73.79421 29 ft 18 kts 302°
2026-05-04 14:57 40.64125 -73.79507 29 ft 17 kts 352°
2026-05-04 14:58 40.64210 -73.79465 31 ft 12 kts 68°
2026-05-04 14:58 40.64265 -73.79368 31 ft 13 kts 44°
2026-05-04 14:58 40.64301 -73.79304 31 ft 6 kts 74°
2026-05-04 14:58 40.64295 -73.79250 31 ft 7 kts 107°
2026-05-04 14:59 40.64285 -73.79206 31 ft 0 kts 105°
2026-05-04 14:59 40.64283 -73.79194 31 ft 0 kts 106°